Location: Thompson
(55.7500°N, 97.8670°W)
Time: 19:56:08
(UTC-05:00)

Cosmos 1666 - Visible Passes

Search period start: 29 July 2014 00:00
Search period end: 08 August 2014 00:00
Orbit: 516 x 546 km, 82.5° (Epoch: 28 July)

Date Brightness Start Highest point End Pass type
(mag) Time Alt. Az. Time Alt. Az. Time Alt. Az.
29 Jul 3.8 02:15:32 20° SSE 02:17:38 36° E 02:21:13 10° NNE visible
29 Jul 4.1 03:50:51 13° WSW 03:53:46 28° WNW 03:57:09 10° N visible
30 Jul 3.9 02:05:29 21° SE 02:07:26 34° E 02:10:58 10° NNE visible
30 Jul 4.0 03:40:49 14° WSW 03:43:31 29° WNW 03:46:57 10° N visible
31 Jul 3.9 01:55:26 22° SE 01:57:13 33° E 02:00:42 10° NNE visible
31 Jul 4.0 03:30:46 16° WSW 03:33:17 30° WNW 03:36:45 10° N visible
01 Aug 4.0 01:45:22 22° SE 01:47:00 31° E 01:50:27 10° NNE visible
01 Aug 3.9 03:20:42 17° WSW 03:23:02 32° WNW 03:26:32 10° N visible
02 Aug 4.0 01:35:18 22° SE 01:36:47 30° E 01:40:10 10° NNE visible
02 Aug 3.8 03:10:37 19° WSW 03:12:47 33° WNW 03:16:19 10° N visible
03 Aug 4.1 01:25:12 22° SE 01:26:34 28° E 01:29:54 10° NNE visible
03 Aug 3.8 03:00:31 21° WSW 03:02:32 35° WNW 03:06:06 10° N visible
04 Aug 4.1 01:15:05 22° ESE 01:16:20 27° E 01:19:37 10° NNE visible
04 Aug 3.7 02:50:25 23° WSW 02:52:16 37° WNW 02:55:53 10° N visible
05 Aug 4.2 01:04:58 22° ESE 01:06:06 26° E 01:09:19 10° NNE visible
05 Aug 3.6 02:40:17 25° WSW 02:42:00 38° WNW 02:45:39 10° N visible
06 Aug 4.2 00:54:49 22° ESE 00:55:52 24° E 00:59:01 10° NE visible
06 Aug 3.6 02:30:09 27° WSW 02:31:45 40° WNW 02:35:24 10° N visible
07 Aug 4.2 00:44:40 21° ESE 00:45:38 23° E 00:48:43 10° NE visible
07 Aug 3.5 02:20:00 29° WSW 02:21:28 42° WNW 02:25:10 10° N visible
